CAPE
1 1 1 2 2 2 3 2 2 2 3 3 3 4 2 3 0 1 1 0 0 0 0 0 0 0 0 0 0 0 0 0 0 0 0 0 0 0 0 0 0 0 0
0 0 1 0 0 1 1 2 2 2 2 2 3 4 4 4 1 0 0 0 0 0 0 0 0 0 0 0 0 0 0 0 0 0 0 0 0 0 0 0 0 0 0
0 0 0 0 0 0 0 1 1 1 2 1 2 1 0 0 0 0 0 0 0 0 0 0 0 0 0 0 0 0 0 0 0 0 0 0 0 0 0 0 0 0 0
0 0 0 0 0 0 1 1 1 1 2 1 0 0 0 0 0 0 0 0 0 0 0 0 0 0 0 0 0 0 0 0 0 0 0 0 0 0 0 0 0 0 0
0 0 0 0 0 0 0 0 0 0 0 0 0 0 0 0 0 0 0 0 0 0 0 0 0 0 0 0 0 0 0 0 0 0 0 0 0 0 0 0 0 0 0
0 0 0 0 0 0 0 0 0 0 0 0 0 0 0 0 0 0 0 0 0 0 0 0 0 0 0 0 0 0 0 0 0 0 0 0 0 0 0 0 0 0 0
0 0 0 0 0 0 0 0 0 0 0 0 0 0 0 0 0 0 0 0 0 0 0 0 0 0 0 0 0 0 0 0 0 0 0 0 0 0 0 0 0 0 0
0 0 0 0 0 0 0 0 0 0 0 0 0 0 0 0 0 0 0 0 0 0 0 0 0 0 0 0 0 0 0 0 0 0 0 0 0 0 0 0 0 0 0
0 0 0 0 0 0 0 0 0 0 0 0 0 0 0 0 0 0 0 0 0 0 0 0 0 0 0 0 0 0 0 0 0 0 0 0 0 0 0 0 0 0 0
0 0 0 0 0 0 0 0 0 0 0 0 0 0 0 0 0 0 0 0 0 0 0 0 0 0 0 0 0 0 0 0 0 0 0 0 0 0 0 0 0 0 0
0 0 0 0 0 0 0 0 0 0 0 0 0 0 0 0 0 0 0 0 0 0 0 0 0 0 0 0 0 0 0 0 0 0 0 0 0 0 0 0 0 0 0
0 0 0 0 0 0 0 0 0 0 0 0 0 0 0 0 0 0 0 0 0 0 0 0 0 0 0 0 0 0 0 0 0 0 0 0 0 0 0 0 0 0 0
0 0 0 0 0 0 0 0 0 0 0 0 0 0 0 0 0 0 0 0 0 0 0 0 0 0 0 0 0 0 0 0 0 0 0 0 0 0 0 0 0 0 0
0 0 0 0 0 0 0 0 0 0 0 0 0 0 0 0 0 0 0 0 0 0 0 0 0 0 0 0 0 0 0 0 0 0 0 0 0 0 0 0 0 0 0
0 0 0 0 0 0 0 0 0 0 0 0 0 0 0 0 0 0 0 0 0 0 0 0 0 0 0 0 0 0 0 0 0 0 0 0 0 0 0 0 0 0 0
0 0 0 0 0 0 0 0 0 0 0 0 0 0 0 0 0 0 0 0 0 0 0 0 0 0 0 0 0 0 0 0 0 0 0 0 0 0 0 0 0 0 0
0 0 0 0 0 0 0 0 0 0 0 0 0 0 0 0 0 0 0 0 0 0 0 0 0 0 0 0 0 0 0 0 0 0 0 0 0 0 0 0 0 0 0
0 0 0 0 0 0 0 0 0 0 0 0 0 0 0 0 0 0 0 0 0 0 0 0 0 0 0 0 0 0 0 0 0 0 0 0 0 0 0 0 0 0 0
0 0 0 0 0 0 0 0 0 0 0 0 0 0 0 0 0 0 0 0 0 0 0 0 0 0 0 0 0 0 0 0 0 0 0 0 0 0 0 0 0 0 0
0 0 0 0 0 0 0 0 0 0 0 0 0 0 0 0 0 0 0 0 0 0 0 0 0 0 0 0 0 0 0 0 0 0 0 0 0 0 0 0 0 0 0
0 0 0 0 0 0 0 0 0 0 0 0 0 0 0 0 0 0 0 0 0 0 0 0 0 0 0 0 0 0 0 0 0 0 0 0 0 0 0 0 0 0 0
0 0 0 0 0 0 0 0 0 0 0 0 0 0 0 0 0 0 0 0 0 0 0 0 0 0 0 0 0 0 0 0 0 0 0 0 0 0 0 0 0 0 0
0 0 0 0 0 0 0 0 0 0 0 0 0 0 0 0 0 0 0 0 0 0 0 0 0 0 0 0 0 0 0 0 0 0 0 0 0 0 0 0 0 0 0
0 0 0 0 0 0 0 0 0 0 0 0 0 0 0 0 0 0 0 0 0 0 0 0 0 0 0 0 0 0 0 0 0 0 0 0 0 0 0 0 0 0 0
0 0 0 0 0 0 0 0 0 0 0 0 0 0 0 0 0 0 0 0 0 0 0 0 0 0 0 0 0 0 0 0 0 0 0 0 0 0 0 0 0 0 0
0 0 0 0 0 0 0 0 0 0 0 0 0 0 0 0 0 0 0 0 0 0 0 0 0 0 0 0 0 0 0 0 0 0 0 0 0 0 0 0 0 0 0
CIN
-0 -0 -0 -0 -0 -0 -0 -0 -0 -0 -0 -0 -0 -0 -0 -0 -0 -0 -0 -0 -0 -0 -0 -0 -0 -0 -0 -0 -0 -0 -0 -0 -0 -0 -0 -0 -0 -0 -0 -0 -0 -0 -0
-0 -0 -0 -0 -0 -0 -0 -0 -0 -0 -0 -0 -0 -0 -0 -0 -0 -0 -0 -0 -0 -0 -0 -0 -0 -0 -0 -0 -0 -0 -0 -0 -0 -0 -0 -0 -0 -0 -0 -0 -0 -0 -0
-0 -0 -0 -0 -0 -0 -0 -0 -0 -0 -0 -0 -0 -0 -0 -0 -0 -0 -0 -0 -0 -0 -0 -0 -0 -0 -0 -0 -0 -0 -0 -0 -0 -0 -0 -0 -0 -0 -0 -0 -0 -0 -0
-0 -0 -0 -0 -0 -0 -0 -0 -0 -0 -0 -0 -0 -0 -0 -0 -0 -0 -0 -0 -0 -0 -0 -0 -0 -0 -0 -0 -0 -0 -0 -0 -0 -0 -0 -0 -0 -0 -0 -0 -0 -0 -0
-0 -0 -0 -0 -0 -0 -0 -0 -0 -0 -0 -0 -0 -0 -0 -0 -0 -0 -0 -0 -0 -0 -0 -0 -0 -0 -0 -0 -0 -0 -0 -0 -0 -0 -0 -0 -0 -0 -0 -0 -0 -0 -0
-0 -0 -0 -0 -0 -0 -0 -0 -0 -0 -0 -0 -0 -0 -0 -0 -0 -0 -0 -0 -0 -0 -0 -0 -0 -0 -0 -0 -0 -0 -0 -0 -0 -0 -0 -0 -0 -0 -0 -0 -0 -0 -0
-0 -0 -0 -0 -0 -0 -0 -0 -0 -0 -0 -0 -0 -0 -0 -0 -0 -0 -0 -0 -0 -0 -0 -0 -0 -0 -0 -0 -0 -0 -0 -0 -0 -0 -0 -0 -0 -0 -0 -0 -0 -0 -0
-0 -0 -0 -0 -0 -0 -0 -0 -0 -0 -0 -0 -0 -0 -0 -0 -0 -0 -0 -0 -0 -0 -0 -0 -0 -0 -0 -0 -0 -0 -0 -0 -0 -0 -0 -0 -0 -0 -0 -0 -0 -0 -0
-0 -0 -0 -0 -0 -0 -0 -0 -0 -0 -0 -0 -0 -0 -0 -0 -0 -0 -0 -0 -0 -0 -0 -0 -0 -0 -0 -0 -0 -0 -0 -0 -0 -0 -0 -0 -0 -0 -0 -0 -0 -0 -0
-0 -0 -0 -0 -0 -0 -0 -0 -0 -0 -0 -0 -0 -0 -0 -0 -0 -0 -0 -0 -0 -0 -0 -0 -0 -0 -0 -0 -0 -0 -0 -0 -0 -0 -0 -0 -0 -0 -0 -0 -0 -0 -0
-0 -0 -0 -0 -0 -0 -0 -0 -0 -0 -0 -0 -0 -0 -0 -0 -0 -0 -0 -0 -0 -0 -0 -0 -0 -0 -0 -0 -0 -0 -0 -0 -0 -0 -0 -0 -0 -0 -0 -0 -0 -0 -0
-0 -0 -0 -0 -0 -0 -0 -0 -0 -0 -0 -0 -0 -0 -0 -0 -0 -0 -0 -0 -0 -0 -0 -0 -0 -0 -0 -0 -0 -0 -0 -0 -0 -0 -0 -0 -0 -0 -0 -0 -0 -0 -0
-0 -0 -0 -0 -0 -0 -0 -0 -0 -0 -0 -0 -0 -0 -0 -0 -0 -0 -0 -0 -0 -0 -0 -0 -0 -0 -0 -0 -0 -0 -0 -0 -0 -0 -0 -0 -0 -0 -0 -0 -0 -0 -0
-0 -0 -0 -0 -0 -0 -0 -0 -0 -0 -0 -0 -0 -0 -0 -0 -0 -0 -0 -0 -0 -0 -0 -0 -0 -0 -0 -0 -0 -0 -0 -0 -0 -0 -0 -0 -0 -0 -0 -0 -0 -0 -0
-0 -0 -0 -0 -0 -0 -0 -0 -0 -0 -0 -0 -0 -0 -0 -0 -0 -0 -0 -0 -0 -0 -0 -0 -0 -0 -0 -0 -0 -0 -0 -0 -0 -0 -0 -0 -0 -0 -0 -0 -0 -0 -0
-0 -0 -0 -0 -0 -0 -0 -0 -0 -0 -0 -0 -0 -0 -0 -0 -0 -0 -0 -0 -0 -0 -0 -0 -0 -0 -0 -0 -0 -0 -0 -0 -0 -0 -0 -0 -0 -0 -0 -0 -0 -0 -0
-0 -0 -0 -0 -0 -0 -0 -0 -0 -0 -0 -0 -0 -0 -0 -0 -0 -0 -0 -0 -0 -0 -0 -0 -0 -0 -0 -0 -0 -0 -0 -0 -0 -0 -0 -0 -0 -0 -0 -0 -0 -0 -0
-0 -0 -0 -0 -0 -0 -0 -0 -0 -0 -0 -0 -0 -0 -0 -0 -0 -0 -0 -0 -0 -0 -0 -0 -0 -0 -0 -0 -0 -0 -0 -0 -0 -0 -0 -0 -0 -0 -0 -0 -0 -0 -0
-0 -0 -0 -0 -0 -0 -0 -0 -0 -0 -0 -0 -0 -0 -0 -0 -0 -0 -0 -0 -0 -0 -0 -0 -0 -0 -0 -0 -0 -0 -0 -0 -0 -0 -0 -0 -0 -0 -0 -0 -0 -0 -0
-0 -0 -0 -0 -0 -0 -0 -0 -0 -0 -0 -0 -0 -0 -0 -0 -0 -0 -0 -0 -0 -0 -0 -0 -0 -0 -0 -0 -0 -0 -0 -0 -0 -0 -0 -0 -0 -0 -0 -0 -0 -0 -0
-0 -0 -0 -0 -0 -0 -0 -0 -0 -0 -0 -0 -0 -0 -0 -0 -0 -0 -0 -0 -0 -0 -0 -0 -0 -0 -0 -0 -0 -0 -0 -0 -0 -0 -0 -0 -0 -0 -0 -0 -0 -0 -0
-0 -0 -0 -0 -0 -0 -0 -0 -0 -0 -0 -0 -0 -0 -0 -0 -0 -0 -0 -0 -0 -0 -0 -0 -0 -0 -0 -0 -0 -0 -0 -0 -0 -0 -0 -0 -0 -0 -0 -0 -0 -0 -0
-0 -0 -0 -0 -0 -0 -0 -0 -0 -0 -0 -0 -0 -0 -0 -0 -0 -0 -0 -0 -0 -0 -0 -0 -0 -0 -0 -0 -0 -0 -0 -0 -0 -0 -0 -0 -0 -0 -0 -0 -0 -0 -0
-0 -0 -0 -0 -0 -0 -0 -0 -0 -0 -0 -0 -0 -0 -0 -0 -0 -0 -0 -0 -0 -0 -0 -0 -0 -0 -0 -0 -0 -0 -0 -0 -0 -0 -0 -0 -0 -0 -0 -0 -0 -0 -0
-0 -0 -0 -0 -0 -0 -0 -0 -0 -0 -0 -0 -0 -0 -0 -0 -0 -0 -0 -0 -0 -0 -0 -0 -0 -0 -0 -0 -0 -0 -0 -0 -0 -0 -0 -0 -0 -0 -0 -0 -0 -0 -0
-0 -0 -0 -0 -0 -0 -0 -0 -0 -0 -0 -0 -0 -0 -0 -0 -0 -0 -0 -0 -0 -0 -0 -0 -0 -0 -0 -0 -0 -0 -0 -0 -0 -0 -0 -0 -0 -0 -0 -0 -0 -0 -0
Wind_Speed
10 9 9 8 8 8 7 6 6 6 7 6 5 5 4 4 5 6 4 3 2 1 2 4 7 8 10 12 13 14 14 17 16 17 16 16 18 22 24 27 28 29 30
7 5 5 4 4 4 3 3 4 4 4 3 2 2 0 3 2 2 3 3 3 2 3 5 8 9 10 12 12 13 14 16 14 15 16 19 21 23 25 27 28 30 32
5 3 1 2 1 1 2 4 1 0 0 0 3 3 5 4 2 1 7 6 7 6 6 7 7 9 11 12 13 14 16 17 17 17 20 18 20 23 29 29 31 33 35
1 4 5 4 3 4 5 6 6 6 7 5 4 5 7 8 4 3 5 8 4 7 8 11 10 12 13 14 15 16 17 17 18 19 21 22 24 25 31 35 38 37 41
5 8 8 6 7 8 8 7 8 9 9 7 10 12 9 8 6 7 8 8 11 11 12 14 14 16 16 17 17 18 19 20 20 22 25 27 29 34 36 36 41 44 44
12 12 8 7 8 7 8 7 11 12 11 9 13 14 10 10 10 12 11 12 12 14 14 15 15 17 19 20 20 21 23 23 24 26 28 31 33 35 37 39 42 45 47
9 7 11 13 9 7 9 9 9 10 10 9 12 11 13 12 13 13 13 13 14 15 16 17 18 19 20 21 23 24 26 27 27 27 31 32 35 36 38 41 42 45 48
32 26 18 9 6 7 7 10 8 12 12 11 12 14 14 14 14 15 17 16 17 18 18 19 19 21 22 24 26 27 27 28 27 27 28 31 34 36 39 41 44 46 47
33 34 28 25 21 12 5 10 20 20 19 17 17 17 18 18 17 16 17 17 18 18 19 21 22 24 26 26 27 29 30 30 29 30 30 34 37 39 38 41 43 47 52
29 28 26 21 13 7 15 25 22 19 16 15 14 14 16 16 16 17 18 18 19 20 21 23 25 26 28 29 30 31 33 34 34 34 36 37 36 36 37 36 39 46 50
27 27 27 27 28 27 27 25 22 20 19 17 17 17 18 18 19 19 20 20 21 22 23 25 26 27 29 30 30 31 32 36 35 37 38 38 37 37 36 35 36 41 46
25 25 25 24 24 23 20 18 17 17 18 18 18 18 18 19 20 20 21 22 22 24 26 25 26 28 30 31 32 32 33 36 36 37 38 38 39 39 39 39 40 40 39
22 22 22 21 20 19 19 17 16 16 16 16 17 17 18 19 20 21 21 22 22 23 24 24 27 31 31 32 31 34 35 35 36 38 39 40 40 41 42 42 41 41 41
20 20 20 19 18 17 16 15 14 13 14 14 14 15 16 17 18 20 21 21 23 25 26 28 29 32 32 33 33 34 34 35 38 40 41 41 41 42 43 42 45 46 47
18 17 16 15 14 13 12 12 11 11 12 12 13 14 15 16 17 20 22 24 25 27 29 31 33 35 36 37 37 37 37 37 39 39 40 41 42 42 43 42 44 46 46
15 14 13 11 10 9 9 9 9 9 10 10 12 12 13 13 17 19 21 23 24 27 29 33 36 37 38 39 39 39 38 38 38 39 40 41 42 43 44 44 44 45 44
10 8 7 6 5 5 6 7 8 11 11 9 9 10 11 15 17 19 22 24 25 26 31 33 35 36 37 37 38 39 40 38 37 38 39 40 41 42 45 47 46 43 42
7 3 2 4 5 6 7 10 11 13 13 12 11 12 13 14 16 19 20 23 26 27 28 31 33 35 37 37 36 36 37 37 37 38 39 40 41 43 46 46 44 41 43
5 2 3 6 8 9 11 12 13 14 15 16 17 16 16 16 18 20 21 23 27 28 29 31 33 35 36 34 35 35 35 37 38 39 40 40 41 42 44 44 41 41 43
7 6 5 7 9 10 12 13 14 15 16 18 18 18 20 21 22 22 23 24 26 28 30 32 34 35 35 35 35 35 36 37 38 38 40 40 40 41 43 42 41 43 44
9 9 9 11 12 13 14 15 17 19 20 20 21 21 21 22 24 24 25 26 26 28 30 32 34 35 34 34 35 35 36 37 37 39 40 40 40 42 41 39 41 42 44
12 12 13 14 16 17 18 19 20 21 23 23 24 25 23 24 25 26 27 28 29 29 30 31 32 34 35 35 35 35 36 37 38 39 40 40 40 41 40 40 41 42 44
14 15 17 17 18 20 22 23 24 25 26 26 26 26 25 26 26 28 30 31 32 32 31 31 32 34 33 34 33 33 35 36 37 38 40 40 41 41 39 39 42 44 44
17 18 19 20 21 23 25 26 26 26 26 26 26 26 27 28 30 32 33 33 33 32 31 31 31 31 33 33 33 33 33 35 36 36 37 38 39 38 37 40 41 42 43
19 20 21 23 24 25 26 26 27 27 27 26 27 28 29 31 33 34 34 33 33 32 31 30 30 30 31 32 33 33 34 35 35 36 36 36 35 33 35 38 40 42 39
20 21 22 24 25 26 27 28 29 28 28 28 28 29 30 32 33 34 34 32 32 31 30 29 29 29 31 32 33 34 35 35 36 35 34 34 32 34 36 39 41 40 40
Wind_Direction
254 257 262 269 276 283 289 293 294 291 294 299 299 290 304 298 307 241 260 129 86 24 339 356 1 357 346 340 329 320 313 307 300 306 315 318 319 321 321 321 322 322 323
252 268 295 298 314 327 330 333 327 325 292 304 269 27 36 54 50 211 94 67 88 40 350 357 358 345 348 351 339 334 331 332 322 316 320 321 320 324 326 326 323 323 322
228 249 327 355 2 33 45 31 24 16 120 169 168 70 76 39 130 194 69 73 49 35 9 7 358 357 354 350 335 339 338 336 335 327 322 333 332 328 324 325 324 323 323
312 27 40 48 66 76 73 67 69 71 63 74 81 58 63 61 52 60 55 46 15 15 19 14 3 359 357 353 346 344 344 347 347 337 335 332 331 328 326 323 322 324 322
44 53 59 71 71 73 71 72 86 68 72 78 72 68 69 64 63 62 50 38 36 27 13 12 9 13 6 1 360 354 351 348 343 338 334 330 327 325 324 324 321 321 321
51 54 68 95 85 102 93 91 77 76 72 77 65 61 63 59 53 49 43 40 28 26 21 11 4 360 8 9 5 356 348 342 338 335 332 329 327 326 325 324 323 323 323
89 98 145 149 135 111 72 88 93 74 65 69 55 51 51 45 41 35 28 20 19 16 16 20 16 10 3 354 348 345 343 342 340 336 331 329 327 327 326 325 324 323 321
122 136 147 141 111 114 103 72 68 54 49 48 43 42 40 36 27 28 33 25 22 20 15 6 359 352 349 345 342 341 341 340 339 337 333 330 328 328 326 324 323 321 321
119 118 135 143 149 154 118 55 62 59 54 48 45 44 43 37 28 18 19 18 12 5 0 355 352 349 347 347 343 338 337 338 339 335 331 328 327 327 326 325 325 324 323
128 132 139 150 164 46 53 79 66 55 42 33 26 17 19 14 8 9 8 8 2 2 356 352 348 345 342 342 338 336 334 334 333 332 331 331 331 330 330 328 327 325 325
125 126 125 122 114 109 100 83 68 56 50 40 32 23 19 13 19 14 6 4 1 356 352 348 348 346 343 341 339 336 334 333 332 331 331 331 331 331 331 331 329 327 325
119 119 120 122 118 93 69 55 45 44 44 44 41 31 24 17 11 9 4 2 1 352 348 347 347 344 341 339 337 335 333 333 333 333 332 332 332 332 332 331 329 326 324
116 113 111 105 100 91 87 73 57 54 50 36 24 14 6 4 2 2 1 358 357 351 352 349 344 341 340 339 338 336 335 335 334 333 333 333 333 332 331 330 330 328 326
122 122 118 112 106 99 93 83 71 59 46 38 29 18 12 9 6 2 360 358 356 352 350 347 344 341 340 340 339 339 338 337 335 333 332 332 332 332 331 331 329 329 327
128 123 120 113 105 90 78 61 47 38 31 21 13 8 4 1 0 357 355 353 353 350 347 345 342 340 338 338 338 338 337 336 334 333 332 331 331 332 331 332 330 329 326
130 128 120 105 89 72 54 36 32 23 17 11 5 5 2 359 355 352 351 350 349 348 345 342 338 337 336 336 336 336 335 334 334 334 332 331 331 331 331 331 330 328 326
135 120 107 97 75 52 33 21 8 357 354 356 352 349 346 345 345 344 343 343 341 342 339 338 337 337 337 337 336 334 333 334 334 333 333 332 331 331 330 330 330 329 327
156 132 54 4 357 352 345 341 339 339 338 339 336 331 332 331 332 334 335 337 336 337 337 337 336 336 335 335 335 335 334 333 333 332 332 331 331 330 330 329 329 328 327
185 213 306 323 323 324 325 324 324 324 324 324 327 327 326 325 327 327 328 327 329 330 332 333 334 333 333 334 334 333 332 332 331 331 331 331 331 331 329 329 328 327 326
224 232 264 297 306 308 312 311 313 313 315 316 316 316 324 327 324 323 324 324 324 324 326 327 331 331 331 332 332 332 331 331 330 330 330 331 331 330 329 329 327 327 327
258 269 270 290 296 300 302 302 306 309 309 309 309 313 314 316 316 317 318 318 318 319 322 323 325 328 329 330 330 330 329 329 329 329 330 330 330 330 329 327 326 326 326
272 276 282 281 293 296 297 301 301 303 305 306 308 311 309 309 312 312 313 314 316 317 319 321 321 323 326 327 328 327 327 327 328 329 329 329 330 329 328 327 327 327 327
270 280 285 286 289 296 299 298 299 300 302 305 307 309 309 307 307 309 310 313 315 315 316 317 319 320 323 325 326 326 326 326 327 328 328 329 329 329 328 327 327 328 328
277 281 284 289 291 294 296 297 298 299 299 302 305 304 305 307 307 309 311 312 314 314 314 315 316 318 321 324 325 325 325 325 327 327 327 327 327 328 327 327 328 327 327
281 284 286 289 293 294 296 297 298 300 301 302 303 305 307 309 310 312 313 314 315 315 315 315 317 319 321 323 324 324 325 325 325 326 326 326 324 323 324 325 326 327 327
286 286 289 293 294 295 298 301 302 303 303 304 306 308 310 311 313 314 315 316 317 318 318 320 320 321 323 325 325 326 327 328 328 328 326 325 324 325 326 326 326 326 326